QPF
0.00 0.00 0.00 0.00 0.00 0.00 0.00 0.00 0.00 0.00 0.00 0.00 0.00 0.00 0.00 0.00 0.00 0.00 0.00 0.00 0.00 0.00
0.00 0.00 0.00 0.00 0.00 0.00 0.00 0.00 0.00 0.00 0.00 0.00 0.00 0.00 0.01 0.01 0.02 0.00 0.00 0.00 0.00 0.00
0.00 0.00 0.00 0.00 0.00 0.00 0.00 0.00 0.00 0.00 0.00 0.00 0.00 0.00 0.01 0.04 0.03 0.05 0.04 0.01 0.00 0.00
0.00 0.00 0.00 0.00 0.00 0.00 0.00 0.00 0.00 0.00 0.00 0.00 0.00 0.00 0.00 0.00 0.01 0.03 0.03 0.02 0.00 0.00
0.00 0.00 0.00 0.00 0.00 0.00 0.00 0.00 0.00 0.00 0.00 0.00 0.00 0.00 0.00 0.00 0.01 0.01 0.00 0.00 0.00 0.00
0.00 0.00 0.00 0.00 0.00 0.00 0.00 0.00 0.00 0.00 0.00 0.00 0.00 0.00 0.03 0.06 0.05 0.02 0.01 0.00 0.00 0.00
0.00 0.00 0.00 0.00 0.00 0.00 0.00 0.00 0.00 0.00 0.00 0.00 0.00 0.01 0.03 0.12 0.09 0.01 0.00 0.00 0.00 0.00
0.00 0.00 0.00 0.00 0.00 0.00 0.00 0.00 0.00 0.00 0.00 0.00 0.00 0.00 0.05 0.04 0.01 0.00 0.00 0.00 0.00 0.00
0.00 0.00 0.00 0.00 0.00 0.00 0.00 0.00 0.00 0.00 0.00 0.00 0.00 0.00 0.03 0.00 0.00 0.00 0.00 0.00 0.00 0.00
0.00 0.00 0.00 0.00 0.00 0.00 0.00 0.00 0.00 0.00 0.00 0.00 0.00 0.00 0.01 0.00 0.00 0.00 0.00 0.00 0.00 0.00
0.00 0.00 0.00 0.00 0.00 0.00 0.00 0.00 0.00 0.00 0.00 0.00 0.00 0.00 0.00 0.00 0.00 0.00 0.00 0.00 0.01 0.02
0.00 0.00 0.00 0.00 0.00 0.00 0.00 0.00 0.00 0.00 0.00 0.00 0.00 0.00 0.00 0.00 0.00 0.00 0.00 0.00 0.00 0.00
0.00 0.00 0.00 0.00 0.00 0.00 0.00 0.00 0.00 0.00 0.00 0.00 0.00 0.00 0.00 0.00 0.00 0.00 0.00 0.00 0.00 0.00
0.00 0.00 0.00 0.00 0.00 0.00 0.00 0.00 0.00 0.00 0.00 0.00 0.00 0.00 0.00 0.00 0.00 0.00 0.00 0.00 0.00 0.00
MSLP
1001.28 1002.01 1002.85 1003.49 1004.27 1004.94 1005.58 1006.10 1006.41 1006.76 1007.25 1007.70 1007.91 1008.11 1008.41 1008.68 1008.80 1009.07 1009.32 1009.46 1009.73 1009.91
1001.79 1002.46 1003.22 1003.99 1004.55 1005.23 1005.72 1006.07 1006.40 1006.82 1007.23 1007.55 1007.74 1007.96 1008.28 1008.49 1008.64 1008.71 1008.86 1009.02 1009.26 1009.55
1002.21 1002.77 1003.47 1004.15 1004.89 1005.39 1005.74 1006.00 1006.42 1006.88 1007.22 1007.39 1007.51 1007.78 1007.90 1008.09 1008.30 1008.39 1008.55 1008.73 1008.89 1009.16
1002.68 1003.25 1003.88 1004.45 1004.93 1005.26 1005.72 1006.06 1006.53 1006.87 1007.04 1007.14 1007.34 1007.48 1007.57 1007.76 1007.95 1008.10 1008.26 1008.43 1008.46 1008.67
1003.14 1003.70 1004.23 1004.70 1005.06 1005.45 1005.84 1006.19 1006.51 1006.73 1006.86 1006.95 1007.00 1007.20 1007.32 1007.40 1007.52 1007.75 1007.93 1008.15 1008.15 1008.46
1003.58 1004.04 1004.47 1004.83 1005.18 1005.54 1005.86 1006.28 1006.56 1006.62 1006.72 1006.81 1006.97 1007.16 1007.18 1007.12 1007.15 1007.28 1007.62 1007.82 1008.07 1008.37
1003.82 1004.26 1004.59 1004.92 1005.36 1005.66 1005.95 1006.27 1006.39 1006.47 1006.64 1006.81 1007.13 1007.15 1007.06 1006.82 1006.97 1007.31 1007.59 1007.78 1007.88 1008.19
1004.00 1004.37 1004.69 1005.03 1005.45 1005.80 1006.02 1006.11 1006.19 1006.47 1006.78 1007.06 1007.30 1007.48 1007.30 1007.02 1007.05 1007.37 1007.64 1007.81 1007.87 1008.05
1003.97 1004.40 1004.74 1005.11 1005.52 1005.89 1005.99 1006.10 1006.30 1006.66 1007.02 1007.28 1007.57 1007.74 1007.44 1007.23 1007.39 1007.56 1007.66 1007.81 1008.02 1008.35
1004.12 1004.55 1004.88 1005.28 1005.64 1005.90 1006.06 1006.13 1006.43 1006.93 1007.27 1007.54 1007.83 1007.84 1007.65 1007.54 1007.72 1007.76 1007.79 1007.89 1008.18 1008.58
1004.19 1004.64 1005.03 1005.34 1005.78 1006.04 1006.17 1006.35 1006.73 1007.22 1007.55 1007.79 1008.11 1008.00 1007.90 1007.80 1007.92 1008.04 1008.20 1008.30 1008.54 1008.82
1004.16 1004.65 1005.09 1005.49 1005.96 1006.17 1006.41 1006.66 1007.00 1007.44 1007.74 1007.93 1008.24 1008.27 1008.08 1008.02 1008.12 1008.33 1008.54 1008.67 1008.96 1009.28
1004.10 1004.59 1005.02 1005.48 1006.06 1006.29 1006.56 1006.82 1007.30 1007.70 1007.92 1008.07 1008.30 1008.48 1008.36 1008.31 1008.39 1008.65 1008.98 1009.26 1009.58 1009.73
1004.06 1004.54 1005.00 1005.57 1005.98 1006.21 1006.59 1006.99 1007.53 1007.80 1007.95 1008.12 1008.35 1008.67 1008.57 1008.58 1008.70 1009.02 1009.38 1009.78 1010.23 1010.69
Thickness
5719 5712 5703 5696 5688 5681 5674 5668 5664 5658 5653 5648 5644 5641 5637 5632 5627 5621 5617 5613 5608 5604
5709 5702 5694 5686 5680 5673 5668 5663 5659 5653 5648 5645 5642 5639 5634 5630 5626 5622 5619 5615 5612 5608
5699 5694 5687 5680 5672 5666 5662 5659 5654 5649 5645 5643 5641 5638 5635 5630 5626 5622 5619 5616 5614 5611
5691 5686 5679 5672 5667 5663 5658 5655 5649 5645 5644 5642 5640 5637 5634 5630 5627 5623 5618 5616 5616 5615
5684 5677 5671 5666 5662 5658 5655 5651 5647 5644 5643 5642 5640 5637 5634 5630 5628 5624 5621 5617 5617 5616
5675 5670 5665 5662 5659 5655 5652 5647 5644 5643 5642 5641 5639 5635 5633 5631 5629 5622 5621 5619 5616 5615
5670 5665 5662 5658 5654 5651 5648 5644 5643 5643 5642 5639 5636 5635 5633 5633 5629 5624 5620 5618 5617 5617
5665 5660 5656 5652 5648 5646 5643 5643 5643 5642 5639 5636 5634 5630 5631 5631 5628 5623 5619 5618 5618 5618
5662 5656 5653 5648 5645 5642 5641 5641 5641 5640 5637 5635 5632 5626 5630 5630 5627 5622 5621 5620 5618 5616
5658 5654 5650 5646 5643 5640 5640 5640 5640 5636 5635 5633 5631 5627 5630 5629 5627 5624 5623 5622 5619 5615
5657 5652 5647 5645 5641 5639 5639 5638 5637 5633 5632 5632 5628 5627 5628 5629 5628 5624 5622 5621 5617 5614
5656 5650 5646 5643 5638 5637 5636 5635 5634 5632 5631 5631 5628 5625 5628 5631 5630 5626 5622 5620 5616 5613
5655 5650 5646 5642 5637 5635 5634 5634 5632 5630 5631 5630 5629 5626 5627 5631 5630 5627 5622 5619 5614 5611
5655 5650 5645 5640 5638 5636 5633 5632 5630 5630 5631 5632 5631 5628 5627 5630 5630 5627 5624 5622 5617 5612